Location: Stoke Bliss
(52.2667°N, 2.5167°W)
Time: 01:23:06
(UTC+00:00)

X-37B - Visible Passes

Search period start: 02 December 2021 00:00
Search period end: 12 December 2021 00:00
Orbit: 330 x 341 km, 45.0° (Epoch: 20 November)

Date Brightness Start Highest point End Pass type
(mag) Time Alt. Az. Time Alt. Az. Time Alt. Az.
09 Dec 2.9 17:55:50 10° S 17:57:08 12° SSE 17:57:18 12° SSE visible
10 Dec 2.7 18:15:16 10° SSW 18:16:51 17° S 18:16:51 17° S visible
11 Dec 3.0 17:01:16 10° S 17:02:34 12° SSE 17:03:52 10° SE visible
11 Dec 3.0 18:35:14 10° SW 18:36:23 16° SSW 18:36:23 16° SSW visible
